[[{"header":{"parameterUnit":"m.s-1","parameterCategory":1,"la1":30.2991,"la2":30.254,"lo1":-89.0895,"lo2":-89.0444,"dy":0.0017,"dx":0.0017,"nx":28,"ny":28,"refTime":"2023-09-20T21:00:00:Z","depth":0,"parameterNumber":2,"parameterNumberName":"U-component_of_WINDS"},"data":[0,0,0,0,0,0,0,0,0,0,0,0,0,0,0,0,0,0,0,0,0,0,0,0,0,0,0,0,0,0,0,0,0,0,0,0,0,0,0,0,0,0,0,0,0,0,0,0,0,0,0,0,0,0,0,0,0,0,-4.8653,-4.8655,0,-4.8857,-4.8859,-4.8861,-4.8915,-4.8914,-4.8912,-4.8911,-4.9126,-4.9133,-4.914,0,0,0,0,0,0,0,0,0,0,0,0,0,-4.8316,-4.8321,-4.8653,-4.8655,-4.8658,-4.8856,-4.8859,-4.8862,-4.8915,-4.8914,-4.8912,-4.8911,-4.9124,-4.9132,-4.914,0,0,0,0,0,0,0,0,0,0,0,0,0,-4.8485,-4.8323,-4.8652,-4.8708,-4.8715,-4.8856,-4.8859,-4.8863,-4.8916,-4.8914,-4.8912,-4.891,-4.9121,-4.9131,-4.9141,-4.9243,0,0,-4.9173,-4.9177,0,0,0,0,0,0,0,0,-4.8475,-4.8497,-4.8697,-4.8705,-4.8713,-4.8858,-4.8819,-4.899,-4.8916,-4.884,-4.8911,-4.8909,-4.9039,-4.9056,-4.9098,-4.9253,-4.9262,-4.9174,-4.918,-4.9185,-4.9187,0,0,0,0,0,0,0,-4.8463,-4.8489,-4.8734,-4.87,-4.871,-4.8725,-4.8747,-4.8852,-4.8948,-4.8846,-4.8851,-4.8874,-4.9043,-4.9088,-4.9104,-4.9265,-4.9174,-4.9183,-4.9189,-4.9193,-4.9512,-4.9515,0,0,0,0,0,0,-4.8441,-4.8479,-4.8727,-4.874,-4.8587,-4.8733,-4.8757,-4.8814,-4.8946,-4.8965,-4.8875,-4.8875,-4.9072,-4.9092,-4.9112,-4.9237,-4.9184,-4.9194,-4.92,-4.951,-4.9513,-4.9515,0,0,0,0,0,0,-4.8434,-4.8463,-4.8719,-4.8611,-4.8644,-4.874,-4.8803,-4.8819,-4.8864,-4.8968,-4.8986,-4.8903,-4.9071,-4.9097,-4.9209,-4.9245,-4.9199,-4.9208,-4.9507,-4.9511,-4.9514,-4.9489,0,0,0,0,0,0,-4.8424,-4.846,-4.8498,-4.8611,-4.865,-4.881,-4.8806,-4.8824,-4.8881,-4.8883,-4.9,-4.9017,-4.9071,-4.9193,-4.9219,-4.9259,-4.9216,-4.9505,-4.9509,-4.9513,-4.9487,-4.9492,-4.9495,0,0,0,0,0,-4.8412,-4.8484,-4.8499,-4.8529,-4.8699,-4.8812,-4.8835,-4.8894,-4.8884,-4.8923,-4.899,-4.9013,-4.9238,-4.9204,-4.9234,-4.9277,-4.9502,-4.9508,-4.9513,-4.9486,-4.9491,-4.9495,0,0,0,0,0,0,-4.8374,-4.85,-4.8518,-4.8629,-4.8709,-4.8821,-4.8872,-4.8898,-4.8985,-4.8983,-4.9056,-4.9082,-4.9188,-4.9245,-4.9205,-4.9382,-4.9371,-4.9382,-4.934,-4.9346,-4.935,-4.9332,-4.9225,0,0,0,0,0,-4.8379,-4.8459,-4.8565,-4.8653,-4.8692,-4.8775,-4.8827,-4.8866,-4.8953,-4.8988,-4.9063,-4.9149,-4.9239,-4.9296,-4.9385,-4.9498,-4.9523,-4.9542,-4.9546,-4.9549,-4.9557,-4.962,-4.9629,-4.9532,-4.9532,-4.9532,0,0,-4.8389,-4.8468,-4.8514,-4.8647,-4.8714,-4.8796,-4.8804,-4.8891,-4.8953,-4.9002,-4.911,-4.917,-4.927,-4.9382,-4.9435,-4.9432,-4.959,-4.9555,-4.9557,-4.9563,-4.9626,-4.9635,-4.9643,-4.9536,-4.9535,-4.9535,0,0,-4.8449,-4.8517,-4.8596,-4.8663,-4.8764,-4.8819,-4.8838,-4.8947,-4.8986,-4.9097,-4.9135,-4.9212,-4.9365,-4.9435,-4.949,-4.9578,-4.9602,-4.9606,-4.9624,-4.9685,-4.9693,-4.97,-4.9729,-4.9739,-4.9614,-4.9614,-4.9614,0,-4.8449,-4.8572,-4.8634,-4.8719,-4.8776,-4.8824,-4.8905,-4.8968,-4.9093,-4.9132,-4.9128,-4.9321,-4.9392,-4.952,-4.9541,-4.9586,-4.961,-4.959,-4.9686,-4.9694,-4.9701,-4.973,-4.9741,-4.9613,-4.9613,-4.9613,-4.9614,0,-4.8566,-4.8652,-4.8705,-4.8821,-4.8886,-4.8969,-4.9044,-4.9103,-4.9137,-4.9193,-4.9305,-4.9393,-4.9499,-4.9534,-4.9569,-4.9668,-4.9663,-4.9672,-4.9661,-4.9709,-4.9737,-4.9749,-4.9613,-4.9613,-4.9613,-4.9613,0,0,-4.8605,-4.8755,-4.8773,-4.8826,-4.8942,-4.901,-4.9097,-4.9198,-4.9246,-4.9333,-4.9406,-4.9536,-4.9544,-4.9607,-4.9652,-4.9705,-4.9767,-4.9708,-4.9711,-4.9713,-4.988,-4.9869,-4.9881,-4.9786,-4.9788,-4.979,-4.987,0,-4.8676,-4.8828,-4.8887,-4.9011,-4.9091,-4.9138,-4.9213,-4.9293,-4.9349,-4.9427,-4.949,-4.9579,-4.9585,-4.9623,-4.9679,-4.9747,-4.9801,-4.9743,-4.9855,-4.9858,-4.9824,-4.9896,-4.9886,-4.9957,-4.9882,-4.9884,-4.9885,0,-4.8779,-4.8863,-4.8994,-4.9099,-4.9135,-4.92,-4.9299,-4.9372,-4.9465,-4.9502,-4.9573,-4.9614,-4.9708,-4.9694,-4.9825,-4.9784,-4.9835,-4.9876,-4.988,-4.989,-4.9871,-4.9905,-4.9981,-4.999,-4.9904,-4.9902,-4.9901,0,-4.8789,-4.8937,-4.9033,-4.9078,-4.9204,-4.9249,-4.9304,-4.9395,-4.9452,-4.954,-4.9578,-4.9677,-4.973,-4.9807,-4.9874,-4.9858,-4.9999,-4.9991,-5.0032,-5.003,-5.0056,-5.0053,-5.0138,-5.0094,-5.0094,-5.0094,-5.0094,0,-4.8861,-4.8938,-4.9039,-4.9099,-4.9188,-4.9257,-4.9344,-4.9403,-4.9484,-4.9557,-4.9607,-4.9674,-4.9761,-4.9841,-4.9896,-4.9995,-5.002,-5.0053,-5.0066,-5.0046,-5.0042,-5.0077,-5.0073,-5.0097,-5.0096,-5.0096,-5.0095,0,-4.8886,-4.8957,-4.9065,-4.9175,-4.9205,-4.9266,-4.9361,-4.9422,-4.9481,-4.9572,-4.9598,-4.9692,-4.9788,-4.9864,-4.9992,-5.0028,-5.0132,-5.0148,-5.0099,-5.0105,-5.0141,-5.0135,-5.025,-5.0268,-5.0214,-5.0214,-5.0215,0,-4.8924,-4.8985,-4.9101,-4.9152,-4.9206,-4.9289,-4.9347,-4.9419,-4.9478,-4.9589,-4.9636,-4.9736,-4.9819,-4.9972,-5.0053,-5.0151,-5.0168,-5.0201,-5.0183,-5.0161,-5.0165,-5.0159,-5.0165,-5.0202,-5.0202,-5.0203,-5.0203,0,-4.8985,-4.9017,-4.9098,-4.9191,-4.9259,-4.9337,-4.9416,-4.9456,-4.9543,-4.9608,-4.9706,-4.977,-4.9899,-4.9998,-5.0104,-5.0164,-5.0198,-5.0208,-5.0223,-5.0201,-5.0169,-5.0185,-5.0102,-5.0205,-5.0204,-5.0204,-5.0204,-5.0204,-4.9016,-4.9071,-4.9161,-4.925,-4.9317,-4.939,-4.9451,-4.9518,-4.96,-4.9708,-4.9747,-4.9848,-4.9942,-5.0087,-5.0148,-5.023,-5.0232,-5.0253,-5.0258,-5.0261,-5.0257,-5.0159,-5.025,-5.025,-5.025,-5.025,-5.025,0,-4.9076,-4.9137,-4.9218,-4.9325,-4.9396,-4.9421,-4.951,-4.9568,-4.9654,-4.9738,-4.9818,-4.9931,-5.0028,-5.0117,-5.0218,-5.0266,-5.0284,-5.029,-5.0286,-5.0299,-5.0251,-5.0227,-5.0273,-5.0273,-5.0273,-5.0273,-5.0273,-5.0273,-4.9115,-4.921,-4.9253,-4.9382,-4.9443,-4.9539,-4.9588,-4.9656,-4.9722,-4.9845,-4.9924,-4.9981,-5.0067,-5.0175,-5.0266,-5.029,-5.0324,-5.0325,-5.0353,-5.0306,-5.0302,-5.0299,-5.0276,-5.0333,-5.0333,-5.0393,-5.0394,-5.0394]},{"header":{"parameterUnit":"m.s-1","parameterCategory":1,"la1":30.2991,"la2":30.254,"lo1":-89.0895,"lo2":-89.0444,"dy":0.0017,"dx":0.0017,"nx":28,"ny":28,"refTime":"2023-09-20T21:00:00:Z","depth":0,"parameterNumber":3,"parameterNumberName":"V-component_of_WINDS"},"data":[0,0,0,0,0,0,0,0,0,0,0,0,0,0,0,0,0,0,0,0,0,0,0,0,0,0,0,0,0,0,0,0,0,0,0,0,0,0,0,0,0,0,0,0,0,0,0,0,0,0,0,0,0,0,0,0,0,0,-1.3737,-1.3736,0,-1.3626,-1.3625,-1.3624,-1.3647,-1.3649,-1.3651,-1.3653,-1.3528,-1.3523,-1.3518,0,0,0,0,0,0,0,0,0,0,0,0,0,-1.3952,-1.3948,-1.3737,-1.3736,-1.3734,-1.3626,-1.3625,-1.3623,-1.3646,-1.3649,-1.3651,-1.3654,-1.353,-1.3523,-1.3517,0,0,0,0,0,0,0,0,0,0,0,0,0,-1.3852,-1.3947,-1.3737,-1.3733,-1.3732,-1.3627,-1.3625,-1.3623,-1.3646,-1.3649,-1.3652,-1.3655,-1.3532,-1.3524,-1.3516,-1.3405,0,0,-1.3492,-1.3489,0,0,0,0,0,0,0,0,-1.3857,-1.3844,-1.3735,-1.3733,-1.3731,-1.3654,-1.3655,-1.355,-1.3645,-1.3678,-1.3653,-1.3657,-1.3566,-1.3556,-1.3528,-1.3399,-1.3394,-1.3491,-1.3487,-1.3483,-1.3481,0,0,0,0,0,0,0,-1.3864,-1.3848,-1.3693,-1.3733,-1.3731,-1.3731,-1.3721,-1.3635,-1.3606,-1.3675,-1.3677,-1.3664,-1.3566,-1.3536,-1.3525,-1.3392,-1.3492,-1.3485,-1.348,-1.3477,-1.3156,-1.3152,0,0,0,0,0,0,-1.3875,-1.3854,-1.3696,-1.369,-1.3804,-1.3725,-1.3713,-1.3675,-1.3607,-1.36,-1.3661,-1.3666,-1.3547,-1.3534,-1.3521,-1.3378,-1.3483,-1.3476,-1.3471,-1.3159,-1.3155,-1.3151,0,0,0,0,0,0,-1.3879,-1.3861,-1.3701,-1.3772,-1.3752,-1.3718,-1.3675,-1.3671,-1.3641,-1.3597,-1.359,-1.3637,-1.3549,-1.3532,-1.3432,-1.3375,-1.3472,-1.3465,-1.3164,-1.3158,-1.3153,-1.3098,0,0,0,0,0,0,-1.3886,-1.3862,-1.3824,-1.3771,-1.3748,-1.3619,-1.3672,-1.3667,-1.3629,-1.3633,-1.3572,-1.3564,-1.3551,-1.3444,-1.3424,-1.3366,-1.3459,-1.3169,-1.3161,-1.3154,-1.3105,-1.3091,-1.308,0,0,0,0,0,-1.3893,-1.3813,-1.3822,-1.3803,-1.37,-1.3616,-1.3602,-1.3591,-1.3625,-1.3582,-1.3552,-1.3566,-1.3386,-1.3434,-1.3412,-1.335,-1.3172,-1.3163,-1.3155,-1.311,-1.3094,-1.308,0,0,0,0,0,0,-1.3857,-1.3806,-1.3816,-1.3717,-1.367,-1.362,-1.3567,-1.3575,-1.3516,-1.3522,-1.3508,-1.3493,-1.339,-1.3361,-1.3415,-1.3233,-1.3283,-1.3269,-1.3256,-1.324,-1.3228,-1.3234,-1.3452,0,0,0,0,0,-1.3838,-1.3778,-1.3735,-1.3651,-1.3628,-1.3601,-1.3564,-1.356,-1.351,-1.3489,-1.3452,-1.3399,-1.3329,-1.3284,-1.3219,-1.3102,-1.3083,-1.3048,-1.3035,-1.3025,-1.3012,-1.2937,-1.2918,-1.3122,-1.3123,-1.3123,0,0,-1.3797,-1.3762,-1.3724,-1.3643,-1.3607,-1.3538,-1.3585,-1.3513,-1.346,-1.3477,-1.3379,-1.335,-1.3289,-1.3178,-1.3127,-1.315,-1.2951,-1.3014,-1.3007,-1.2998,-1.2927,-1.2907,-1.289,-1.3117,-1.3118,-1.3119,0,0,-1.3686,-1.3657,-1.358,-1.3542,-1.3487,-1.3469,-1.345,-1.3397,-1.3378,-1.3281,-1.329,-1.3225,-1.3108,-1.3061,-1.3023,-1.2887,-1.2894,-1.2866,-1.2798,-1.2726,-1.271,-1.2695,-1.2638,-1.2619,-1.2854,-1.2854,-1.2854,0,-1.364,-1.3543,-1.3539,-1.3464,-1.3423,-1.3439,-1.3355,-1.3318,-1.3243,-1.3212,-1.324,-1.3088,-1.3049,-1.2922,-1.2889,-1.286,-1.2831,-1.2871,-1.2714,-1.2699,-1.2685,-1.263,-1.2609,-1.285,-1.2851,-1.2851,-1.2852,0,-1.3485,-1.3417,-1.3361,-1.3289,-1.3243,-1.3165,-1.3142,-1.3095,-1.3093,-1.3069,-1.2964,-1.2918,-1.2838,-1.2809,-1.2807,-1.2679,-1.2694,-1.2719,-1.2766,-1.2662,-1.2609,-1.2589,-1.2845,-1.2847,-1.2848,-1.2849,0,0,-1.3349,-1.3273,-1.3251,-1.3215,-1.3153,-1.3096,-1.3015,-1.294,-1.2896,-1.2843,-1.2767,-1.2666,-1.2685,-1.2641,-1.2633,-1.2571,-1.2454,-1.2601,-1.2599,-1.2568,-1.2299,-1.2275,-1.2252,-1.2461,-1.2457,-1.2454,-1.2301,0,-1.3226,-1.3087,-1.3077,-1.2948,-1.2879,-1.289,-1.2817,-1.2767,-1.2742,-1.2675,-1.2646,-1.257,-1.2607,-1.2579,-1.2518,-1.2482,-1.2399,-1.2494,-1.2383,-1.2379,-1.2391,-1.2226,-1.2203,-1.2061,-1.2281,-1.2278,-1.2276,0,-1.3065,-1.3006,-1.2871,-1.2811,-1.2782,-1.2718,-1.2643,-1.2583,-1.2523,-1.2508,-1.2455,-1.2454,-1.2362,-1.2417,-1.2285,-1.2349,-1.2303,-1.2277,-1.2271,-1.2255,-1.2316,-1.2197,-1.2017,-1.1992,-1.2245,-1.2248,-1.225,0,-1.2968,-1.2856,-1.2758,-1.2728,-1.2658,-1.2611,-1.2578,-1.2523,-1.2475,-1.2409,-1.2376,-1.23,-1.2255,-1.2193,-1.2167,-1.2211,-1.2032,-1.2088,-1.2009,-1.2009,-1.1966,-1.1968,-1.1767,-1.1949,-1.1949,-1.195,-1.195,0,-1.2828,-1.2742,-1.2712,-1.2651,-1.2553,-1.254,-1.2441,-1.241,-1.2359,-1.2286,-1.2292,-1.2222,-1.2197,-1.2121,-1.21,-1.1987,-1.197,-1.1948,-1.1942,-1.1944,-1.1945,-1.1908,-1.1914,-1.1944,-1.1945,-1.1947,-1.1948,0,-1.2701,-1.268,-1.2572,-1.2514,-1.2497,-1.2425,-1.2372,-1.2309,-1.2285,-1.2192,-1.2169,-1.2127,-1.2037,-1.2007,-1.1899,-1.1884,-1.175,-1.1757,-1.1771,-1.1767,-1.1687,-1.1691,-1.145,-1.1413,-1.1627,-1.1625,-1.1623,0,-1.2611,-1.2545,-1.2479,-1.2432,-1.2398,-1.2324,-1.2275,-1.2258,-1.2205,-1.2128,-1.2071,-1.1984,-1.1911,-1.1766,-1.1721,-1.1635,-1.1634,-1.1556,-1.1621,-1.1621,-1.1622,-1.1623,-1.1611,-1.1541,-1.1539,-1.1537,-1.1536,0,-1.2448,-1.2439,-1.2371,-1.2296,-1.2238,-1.2178,-1.212,-1.208,-1.2052,-1.1992,-1.1901,-1.1845,-1.1733,-1.1641,-1.1552,-1.1512,-1.1514,-1.1516,-1.1491,-1.1488,-1.1495,-1.1481,-1.1728,-1.152,-1.1522,-1.1523,-1.1524,-1.1524,-1.2331,-1.2269,-1.2211,-1.2132,-1.2087,-1.203,-1.1966,-1.1932,-1.1857,-1.1766,-1.176,-1.1658,-1.1591,-1.1473,-1.1428,-1.1343,-1.1364,-1.1332,-1.1321,-1.1311,-1.13,-1.1515,-1.1328,-1.1328,-1.1329,-1.1329,-1.1329,0,-1.2161,-1.2124,-1.2052,-1.1969,-1.1904,-1.1919,-1.1853,-1.1796,-1.1708,-1.1648,-1.1576,-1.1466,-1.1376,-1.1323,-1.123,-1.1172,-1.117,-1.1147,-1.1147,-1.1135,-1.1292,-1.1318,-1.1149,-1.1149,-1.115,-1.115,-1.115,-1.115,-1.2065,-1.1958,-1.1941,-1.1808,-1.177,-1.1674,-1.1633,-1.1578,-1.1528,-1.1407,-1.1332,-1.1301,-1.1239,-1.1141,-1.1055,-1.1041,-1.1002,-1.0976,-1.0962,-1.1108,-1.1126,-1.1143,-1.1167,-1.097,-1.097,-1.0812,-1.0811,-1.0809]}]]